Location: Newark
(7.0858°N, 171.3717°E)
Time: 15:33:16
(UTC+00:00)

Courier 1B Rocket - Pass Details

Date: 30 November 2020
Orbit: 920 x 1202 km, 28.2° (Epoch: 20 January)

Event Time Altitude Azimuth Distance (km) Brightness Sun altitude
Rises 22:46:48 0° 310° (NW) 4,003 7.8 52.6°
Reaches altitude 10° 22:49:56 10° 318° (NW) 3,004 7.3 53.1°
Maximum altitude 22:56:38 37° 23° (NNE) 1,622 6.4 54.1°
Drops below altitude 10° 23:02:55 10° 89° (E) 2,814 7.8 55.0°
Sets 23:05:45 0° 97° (E) 3,722 8.3 55.4°
